Regional Weather Roundup
Issued by NWS Charleston, SC

Current Version | Previous Version | Graphics & Text | Print | Product List | Glossary On
Versions: 1 2 3 4 5 6 7 8 9 10 11 12 13 14 15 16 17 18 19 20 21 22 23 24 25 26 27 28 29 30 31 32 33 34 35 36 37 38 39 40 41 42 43 44 45 46 47 48 49 50
000 ASUS42 KCHS 081427 RWRCHS REGIONAL WEATHER ROUNDUP NATIONAL WEATHER SERVICE CHARLESTON SC 900 AM EST MON FEB 08 2016 NOTE: "FAIR" INDICATES FEW OR NO CLOUDS BELOW 12,000 FEET WITH NO SIGNIFICANT WEATHER AND/OR OBSTRUCTIONS TO VISIBILITY. NOT ALL STATIONS ARE QUALITY CONTROLLED BY THE NATIONAL WEATHER SERVICE. USE DATA WITH CAUTION...ESPECIALLY DEWPOINT OBSERVATIONS. NOTICE: OBSERVATIONS FOR THE SAVANNAH-HILTON HEAD INTERNATIONAL AIRPORT /KSAV/ HAVE BEEN TEMPORARILY REMOVED DUE TO AN ERRONEOUS TEMPERATURE SENSOR. THE OBSERVATION WILL BE REINTRODUCED ONCE REPAIRS ARE COMPLETE. SCZ027-030-031-034>040-042>050-081500- ...SOUTHEAST SOUTH CAROLINA... CITY SKY/WX TMP DP RH WIND PRES REMARKS N CHARLESTON SUNNY 44 31 60 W7 29.90F WATERFRONT PRK N/A 43 33 68 W5 29.75F MOUNT PLEASANT FAIR 45 32 61 W7 29.91S JOHNS ISLAND FAIR 48 34 57 W8 29.91S PINOPOLIS N/A 43 32 65 VRB2 29.82S MONCKS CORNER FAIR 41 28 60 CALM 29.89F SUMMERVILLE FAIR 43 34 70 CALM 29.90F BEAUFORT MCAS SUNNY 46 34 62 SW7 29.92F BEAUFORT ARPT FAIR 46 32 57 SW8 29.92S HAZE HILTON HEAD IS SUNNY 46 32 57 SW9 29.94S WALTERBORO SUNNY 46 32 57 SW7 29.90F ALLENDALE FAIR 45 32 61 CALM 29.89S ...SOUTHERN MIDLANDS AND PEE DEE... CITY SKY/WX TMP DP RH WIND PRES REMARKS GEORGETOWN NOT AVBL KINGSTREE NOT AVBL ORANGEBURG SUNNY 39 31 72 SW6 29.88S WCI 35 BARNWELL FAIR 45 32 61 CALM 29.88F AIKEN FAIR 41 28 60 SW6 29.87F MANNING FAIR 41 28 60 S6 29.88F COLUMBIA SUNNY 41 27 57 SW7 29.85F SUMTER SUNNY 38 30 71 S3 29.84F FLORENCE SUNNY 39 32 76 S6 29.86F WCI 35 MYRTLE BEACH SUNNY 43 30 61 SW5 29.91F N MYRTLE BEACH SUNNY 44 31 60 W3 29.88F $$ GAZ063-065-086>088-099>101-113>116-118-119-134>141-150-081500- ...SOUTHEAST GEORGIA... CITY SKY/WX TMP DP RH WIND PRES REMARKS SAVANNAH ARPT MOSUNNY 44 31 60 SW7 29.94F HUNTER AAF SUNNY 45 33 62 SW7 29.92S FORT STEWART SUNNY 45 32 61 SW6 29.92F STATESBORO SUNNY 50 26 39 SW8 29.92S SYLVANIA SUNNY 46 35 65 W3 29.92R CLAXTON FAIR 47 35 65 SW3 29.94R ...CSRA...CENTRAL AND FAR SOUTHEAST GEORGIA... CITY SKY/WX TMP DP RH WIND PRES REMARKS THOMSON SUNNY 46 32 58 SW3 29.89S AUGUSTA-BUSH MOSUNNY 42 27 55 SW5 29.87F AUGUSTA-DANIEL SUNNY 45 25 45 SW6 29.86F SWAINSBORO FAIR 45 32 61 SW5 29.91F VIDALIA SUNNY 46 32 57 SW7 29.93F EASTMAN FAIR 46 31 57 W6 29.95F HAZLEHURST FAIR 50 32 50 SW5 29.93F ALMA SUNNY 43 32 65 SW8 29.96F WAYCROSS SUNNY 48 36 62 W8 29.97F JESUP FAIR 46 37 71 W5 29.96F BAXLEY FAIR 46 32 57 W6 29.95S BRUNSWICK SUNNY 46 34 61 SW6 29.98F SAINT SIMONS SUNNY 46 34 62 SW8 29.98S $$ SCZ027-028-034-036>038-045-046-048>050-GAZ119-141-081500- ...LAKE AND SUPPLEMENTAL COASTAL OBSERVATIONS... STATION/POSITION TIME TEMP WIND PRES WAVE SWELL AIR SEA DIR/SP/G HT/PER HT/PER/DIR (UTC) (F) (DEG/KT/KT) (MB) (FT/S) (FT/S/D) WINYAH BAY 1345 44 220/ 5 1011.0S LAKE MURRAY 1300 42 260/ 6/ 10 1010.5S ACE BASIN NERRS 1300 40 250/ 2 1013.0 FORT PULASKI 1400 46 52 230/ 5/ 7 1014.0F SAPELO ISLAND 1400 46 230/ 10 1015.0S $$ ANZ835-935-AMZ111-154-330-350-352-354-370-450-454-472-081500- ...C-MAN AND BUOY OBSERVATIONS... STATION/POSITION TIME TEMP WIND PRES WAVE SWELL AIR SEA DIR/SP/G HT/PER HT/PER/DIR (UTC) (F) (DEG/KT/KT) (MB) (FT/S) (FT/S/D) BUOY 41004 1350 53 66 270/ 14/ 17 1012.3R 5/13 3/13 BUOY 41008 1350 49 55 260/ 12/ 14 1014.6R 3/15 2/110/15 FOLLY BEACH CMAN 1400 45 250/ 6/ 9 1012.6F CAPERS NEARSHORE 1308 46 270/ 14/ 17 1012.4R FRIPP NEARSHORE 1300 48 270/ 14/ 16 1012.8F STATION/POSITION TIME TEMP WIND PRES WAVE SWELL AIR SEA DIR/SP/G HT/PER HT/PER/DIR (UTC) (F) (DEG/KT/KT) (MB) (FT/S) (FT/S/D) 5E ST. MARYS GA 1321 54 N/A 3/13 2/ 80/13 FRYING PAN BUOY 1400 48 63 320/ 10/ 12 1012.0F BUOY 41025 1350 43 54 320/ 21/ 27 1007.8R 13/17 11/ 90/17 CAPE LOOKOUT NC NOT AVBL BUOY 41002 1350 58 69 300/ 25/ 31 N/A 23/13 20/340/13 BUOY 41010 1320 62 74 1016.1R ST AUGUSTINE FL 1400 49 56 240/ 5/ 8 1017.9R $$

USA.gov is the U.S. government's official web portal to all federal, state and local government web resources and services.